User: anonymous   Login
Location: Ellerstadt
(49.4644°N, 8.2615°E)
Time: 05:56:27
(UTC+00:00)
Language:

Altair - Orbit

View from above orbital plane
View from above orbital plane
View from above satellite
View from above satellite

Ground track
Ground track

The orbit data is extracted from the following two-line orbital elements,

1 00050U 60009B   21165.48609560 -.00000070  00000-0  14332-3 0  9997
2 00050  47.2326  77.6402 0114322 324.6840  34.6416 12.20117015714429
Epoch (UTC): 14 June 2021 11:39:58
Eccentricity: 0.0114322
inclination: 47.2326°
perigee height: 1501 km
apogee height: 1683 km
right ascension of ascending node: 77.6402°
argument of perigee: 324.6840°
revolutions per day: 12.20117015
mean anomaly at epoch: 34.6416°
orbit number at epoch: 71442

The dashed part of the orbit path shows where the satellite is in the earth's shadow,  

DLR